When you browse on this site, cookies collect data to enhance your experience and personalize the content and advertising you see.
Visit our Privacy Policy to learn more. By continuing to use the site, you agree to this use of cookies and data.
  • In Switzerland
  • List of Countries
  • For 7 days
  • Water Temperature
  • Weather Map
  • Weather Widgets
  • user-avatar
    Login

    Hourly Weather Liege

    Today, 16 October, Wednesday

    Time Temperature Precipitation Wind Pressure Humidity
    00:00 +11°C° 0 mm 4 mps 748 mmHg 90%
    01:00 +11°C° 0 mm 4 mps 748 mmHg 89%
    02:00 +10°C° 0 mm 5 mps 748 mmHg 89%
    03:00 +10°C° 0 mm 5 mps 748 mmHg 89%
    04:00 +9°C° 0 mm 5 mps 748 mmHg 90%
    05:00 +8°C° 0 mm 4 mps 748 mmHg 91%
    06:00 +8°C° 0 mm 4 mps 748 mmHg 92%
    07:00 +9°C° 0.7 mm 5 mps 748 mmHg 91%
    08:00 +10°C° 0.7 mm 6 mps 748 mmHg 90%
    09:00 +11°C° 0.7 mm 7 mps 748 mmHg 90%
    10:00 +11°C° 1.8 mm 7 mps 748 mmHg 90%
    11:00 +11°C° 1.8 mm 7 mps 748 mmHg 91%
    12:00 +11°C° 1.8 mm 7 mps 747 mmHg 92%
    13:00 +11°C° 0.5 mm 7 mps 747 mmHg 91%
    14:00 +11°C° 0.5 mm 7 mps 747 mmHg 90%
    15:00 +12°C° 0.5 mm 7 mps 747 mmHg 89%
    16:00 +13°C° 0.2 mm 6 mps 747 mmHg 89%
    17:00 +13°C° 0.2 mm 6 mps 747 mmHg 90%
    18:00 +13°C° 0.2 mm 6 mps 747 mmHg 90%
    19:00 +13°C° 0.9 mm 6 mps 747 mmHg 90%
    20:00 +11°C° 0.9 mm 6 mps 747 mmHg 91%
    21:00 +11°C° 0.9 mm 7 mps 747 mmHg 91%
    22:00 +11°C° 0.6 mm 6 mps 747 mmHg 92%
    23:00 +13°C° 0.6 mm 6 mps 747 mmHg 92%

    Tomorrow, 17 October, Thursday

    Time Temperature Precipitation Wind Pressure Humidity
    00:00 +13°C° 0.6 mm 6 mps 747 mmHg 92%
    01:00 +13°C° 0.3 mm 5 mps 747 mmHg 93%
    02:00 +13°C° 0.3 mm 5 mps 747 mmHg 93%
    03:00 +13°C° 0.3 mm 4 mps 747 mmHg 93%
    04:00 +13°C° 0.1 mm 4 mps 748 mmHg 94%
    05:00 +13°C° 0.1 mm 4 mps 748 mmHg 94%
    06:00 +13°C° 0.1 mm 4 mps 748 mmHg 94%
    07:00 +13°C° 0.1 mm 4 mps 749 mmHg 91%
    08:00 +13°C° 0.1 mm 4 mps 749 mmHg 88%
    09:00 +13°C° 0.1 mm 4 mps 750 mmHg 84%
    10:00 +14°C° 0.1 mm 4 mps 750 mmHg 83%
    11:00 +14°C° 0.1 mm 3 mps 750 mmHg 82%
    12:00 +14°C° 0.1 mm 3 mps 750 mmHg 82%
    13:00 +14°C° 0.1 mm 3 mps 750 mmHg 84%
    14:00 +14°C° 0.1 mm 4 mps 750 mmHg 86%
    15:00 +14°C° 0.1 mm 4 mps 749 mmHg 89%
    16:00 +14°C° 0.1 mm 4 mps 749 mmHg 90%
    17:00 +13°C° 0.1 mm 3 mps 750 mmHg 92%
    18:00 +13°C° 0.1 mm 3 mps 750 mmHg 93%
    19:00 +13°C° 0.1 mm 3 mps 749 mmHg 92%
    20:00 +13°C° 0.1 mm 3 mps 749 mmHg 91%
    21:00 +13°C° 0.1 mm 3 mps 749 mmHg 90%
    22:00 +13°C° 0.2 mm 4 mps 749 mmHg 91%
    23:00 +13°C° 0.2 mm 4 mps 749 mmHg 92%

    Day after tomorrow, 18 October, Friday

    Time Temperature Precipitation Wind Pressure Humidity
    00:00 +13°C° 0.2 mm 4 mps 748 mmHg 93%
    01:00 +13°C° 0.1 mm 4 mps 748 mmHg 93%
    02:00 +13°C° 0.1 mm 4 mps 748 mmHg 93%
    03:00 +13°C° 0.1 mm 4 mps 747 mmHg 93%
    04:00 +13°C° 0.2 mm 5 mps 747 mmHg 92%
    05:00 +13°C° 0.2 mm 5 mps 747 mmHg 91%
    06:00 +12°C° 0.2 mm 5 mps 747 mmHg 91%
    07:00 +13°C° 0 mm 6 mps 747 mmHg 87%
    08:00 +12°C° 0 mm 7 mps 747 mmHg 84%
    09:00 +13°C° 0 mm 8 mps 747 mmHg 80%
    10:00 +13°C° 0.1 mm 8 mps 747 mmHg 75%
    11:00 +15°C° 0.1 mm 8 mps 748 mmHg 71%
    12:00 +16°C° 0.1 mm 8 mps 748 mmHg 66%
    13:00 +15°C° 0.2 mm 7 mps 747 mmHg 68%
    14:00 +15°C° 0.2 mm 6 mps 747 mmHg 71%
    15:00 +14°C° 0.2 mm 5 mps 747 mmHg 73%
    16:00 +13°C° 0 mm 5 mps 747 mmHg 76%
    17:00 +12°C° 0 mm 4 mps 747 mmHg 80%
    18:00 +11°C° 0 mm 3 mps 747 mmHg 83%
    19:00 +11°C° 0 mm 3 mps 748 mmHg 84%
    20:00 +11°C° 0 mm 3 mps 748 mmHg 85%
    21:00 +11°C° 0 mm 3 mps 748 mmHg 87%
    22:00 +11°C° 0 mm 3 mps 748 mmHg 86%
    23:00 +11°C° 0 mm 4 mps 747 mmHg 86%

    19 October, Saturday

    Time Temperature Precipitation Wind Pressure Humidity
    00:00 +11°C° 0 mm 4 mps 747 mmHg 86%
    01:00 +11°C° 0.1 mm 4 mps 747 mmHg 86%
    02:00 +11°C° 0.1 mm 4 mps 746 mmHg 87%
    03:00 +11°C° 0.1 mm 4 mps 746 mmHg 88%
    04:00 +12°C° 0.2 mm 4 mps 746 mmHg 89%
    05:00 +12°C° 0.2 mm 4 mps 745 mmHg 89%
    06:00 +12°C° 0.2 mm 5 mps 745 mmHg 90%
    07:00 +12°C° 0.2 mm 5 mps 745 mmHg 89%
    08:00 +12°C° 0.2 mm 5 mps 745 mmHg 88%
    09:00 +13°C° 0.2 mm 5 mps 745 mmHg 87%
    10:00 +13°C° 0.3 mm 5 mps 745 mmHg 87%
    11:00 +13°C° 0.3 mm 5 mps 745 mmHg 87%
    12:00 +13°C° 0.3 mm 5 mps 745 mmHg 87%
    13:00 +13°C° 0.2 mm 5 mps 745 mmHg 87%
    14:00 +13°C° 0.2 mm 5 mps 745 mmHg 88%
    15:00 +12°C° 0.2 mm 4 mps 744 mmHg 89%
    16:00 +12°C° 0.2 mm 4 mps 745 mmHg 90%
    17:00 +12°C° 0.2 mm 4 mps 745 mmHg 91%
    18:00 +12°C° 0.2 mm 4 mps 746 mmHg 92%
    19:00 +11°C° 0.1 mm 3 mps 746 mmHg 93%
    20:00 +11°C° 0.1 mm 3 mps 746 mmHg 94%
    21:00 +10°C° 0.1 mm 2 mps 746 mmHg 95%
    22:00 +10°C° 0 mm 2 mps 746 mmHg 94%
    23:00 +10°C° 0 mm 2 mps 747 mmHg 94%

    20 October, Sunday

    Time Temperature Precipitation Wind Pressure Humidity
    00:00 +9°C° 0 mm 2 mps 747 mmHg 94%
    01:00 +9°C° 0 mm 2 mps 747 mmHg 94%
    02:00 +9°C° 0 mm 2 mps 748 mmHg 94%
    03:00 +9°C° 0 mm 2 mps 748 mmHg 93%
    04:00 +9°C° 0 mm 2 mps 748 mmHg 93%
    05:00 +9°C° 0 mm 2 mps 748 mmHg 94%
    06:00 +8°C° 0 mm 2 mps 749 mmHg 94%
    07:00 +9°C° 0 mm 2 mps 749 mmHg 90%
    08:00 +11°C° 0 mm 3 mps 749 mmHg 87%
    09:00 +12°C° 0 mm 3 mps 750 mmHg 83%
    10:00 +13°C° 0 mm 3 mps 750 mmHg 78%
    11:00 +14°C° 0 mm 3 mps 750 mmHg 73%
    12:00 +16°C° 0 mm 3 mps 750 mmHg 68%
    13:00 +14°C° 0 mm 3 mps 750 mmHg 70%
    14:00 +15°C° 0 mm 2 mps 751 mmHg 71%
    15:00 +15°C° 0 mm 2 mps 751 mmHg 72%
    16:00 +14°C° 0 mm 2 mps 751 mmHg 76%
    17:00 +12°C° 0 mm 2 mps 751 mmHg 81%
    18:00 +10°C° 0 mm 2 mps 752 mmHg 85%
    19:00 +10°C° 0 mm 1 mps 752 mmHg 86%
    20:00 +10°C° 0 mm 1 mps 753 mmHg 87%
    21:00 +10°C° 0 mm 1 mps 753 mmHg 88%
    22:00 +10°C° 0 mm 1 mps 753 mmHg 88%
    23:00 +9°C° 0 mm 1 mps 753 mmHg 88%

    21 October, Monday

    Time Temperature Precipitation Wind Pressure Humidity
    00:00 +9°C° 0 mm 1 mps 753 mmHg 88%
    01:00 +9°C° 0 mm 1 mps 753 mmHg 88%
    02:00 +8°C° 0 mm 0 mps 753 mmHg 88%
    03:00 +8°C° 0 mm 0 mps 753 mmHg 87%
    04:00 +9°C° 0 mm 1 mps 754 mmHg 87%
    05:00 +9°C° 0 mm 1 mps 754 mmHg 86%
    06:00 +10°C° 0 mm 1 mps 754 mmHg 86%
    07:00 +10°C° 0 mm 1 mps 754 mmHg 84%
    08:00 +11°C° 0 mm 1 mps 754 mmHg 83%
    09:00 +12°C° 0 mm 2 mps 755 mmHg 81%
    10:00 +13°C° 0 mm 2 mps 755 mmHg 81%
    11:00 +13°C° 0 mm 2 mps 755 mmHg 81%
    12:00 +14°C° 0 mm 2 mps 755 mmHg 81%
    13:00 +13°C° 0.1 mm 3 mps 755 mmHg 83%
    14:00 +13°C° 0.1 mm 3 mps 754 mmHg 85%
    15:00 +13°C° 0.1 mm 3 mps 754 mmHg 87%
    16:00 +12°C° 0 mm 3 mps 754 mmHg 88%
    17:00 +12°C° 0 mm 3 mps 754 mmHg 89%
    18:00 +11°C° 0 mm 3 mps 754 mmHg 90%
    19:00 +11°C° 0.4 mm 3 mps 754 mmHg 92%
    20:00 +11°C° 0.4 mm 3 mps 754 mmHg 93%
    21:00 +11°C° 0.4 mm 4 mps 754 mmHg 95%
    22:00 +11°C° 0.1 mm 4 mps 754 mmHg 95%
    23:00 +12°C° 0.1 mm 4 mps 754 mmHg 95%
    Show more